Find Mozhaets-4

NORAD ID: 27939 Int'l Des: 2003-042 Owner: MOZHA Country: RU operational
LEOCIRCULARRETROGRADESSO

Current View

Loading 3D Globe...

About Mozhaets-4

Description loading...

Upcoming Passes

Passes for default location (London). Set your location on the main map for personalized predictions.

Altitude History

Loading altitude history...

Two-Line Element Set

1 27939U 03042A 26151.23379756 .00001433 00000-0 22909-3 0 9992
2 27939 98.3463 335.1145 0010586 328.7469 86.0405 14.73435137213058
Epoch: May 31, 2026 • Age: 7 hours

Current Status

Altitude 663.0 km
Velocity 7.53 km/s
Sub-Earth Point 39.20°N, 85.46°E
Launch Date Sep 27, 2003
Age 22.6 years
Type other

Technical Details

Classification Payload
Mass 64.00 kg
Dry Mass 64.00 kg
Total Mass 64.00 kg
Length 1.00 m
Diameter 1.00 m
Span 1.00 m
Shape Poly
Manufacturer NPOPMR
Bus Type Strela-1M
Phase Status In Orbit
Owner/State MOZHA/RU

Most Searched